Back to Top

Language: 

My Weather Underground Personal Weather Station Historical Data with Graphs...

Delerius Weather Station Historical Data
Daily Summary for January 10, 2017 Units:  English    Metric   Both
« Previous Day
Next Day »
Daily Weekly Monthly Yearly Custom
  High: Low: Average:
Temperature: 48.7 °F 41.7 °F 46.2 °F
Dew Point: 45.4 °F 38.7 °F 42.5 °F
Humidity: 91 % 80 % 87 %
Wind Speed: 18.0 mph 4.0 mph 10.8 mph
Wind Gust: 25.0 mph - -
Wind:- - West
Pressure: 29.78 in 29.66 in -
Precipitation: 0.00 in    
Historical Graphs
 
 
Tabular Data for January 10, 2017
Time Temperature Dew Point Pressure Wind Wind Speed Wind Gust Humidity Rainfall Rate (Hourly) solar Conditions
00:00 41.7 °F 38.7 °F 29.69 in West 10.0 mph 10.0 mph 89 % 0.00 in 0 W/m2
00:05 41.7 °F 39.0 °F 29.69 in SW 9.0 mph 10.0 mph 90 % 0.00 in 0 W/m2
00:15 41.9 °F 39.2 °F 29.69 in WSW 11.0 mph 11.0 mph 90 % 0.00 in 0 W/m2
00:25 41.8 °F 39.1 °F 29.69 in West 10.0 mph 10.0 mph 90 % 0.00 in 0 W/m2
00:30 41.8 °F 39.4 °F 29.69 in West 10.0 mph 10.0 mph 91 % 0.00 in 0 W/m2
00:35 41.8 °F 39.4 °F 29.69 in West 11.0 mph 11.0 mph 91 % 0.00 in 0 W/m2
00:40 41.8 °F 39.4 °F 29.69 in WNW 14.0 mph 14.0 mph 91 % 0.00 in 0 W/m2
00:50 41.9 °F 39.5 °F 29.69 in West 11.0 mph 11.0 mph 91 % 0.00 in 0 W/m2
00:55 42.0 °F 39.6 °F 29.68 in NW 11.0 mph 11.0 mph 91 % 0.00 in 0 W/m2
01:00 42.2 °F 39.5 °F 29.68 in West 12.0 mph 12.0 mph 90 % 0.00 in 0 W/m2
01:05 42.3 °F 39.6 °F 29.68 in WNW 13.0 mph 13.0 mph 90 % 0.00 in 0 W/m2
01:10 42.4 °F 39.7 °F 29.68 in West 11.0 mph 23.0 mph 90 % 0.00 in 0 W/m2
01:15 42.4 °F 39.7 °F 29.68 in WNW 12.0 mph 23.0 mph 90 % 0.00 in 0 W/m2
01:25 42.3 °F 39.6 °F 29.67 in WNW 12.0 mph 23.0 mph 90 % 0.00 in 0 W/m2
01:30 42.3 °F 39.6 °F 29.67 in WSW 12.0 mph 23.0 mph 90 % 0.00 in 0 W/m2
01:35 42.3 °F 39.6 °F 29.67 in WNW 13.0 mph 23.0 mph 90 % 0.00 in 0 W/m2
01:40 42.5 °F 39.8 °F 29.67 in West 14.0 mph 14.0 mph 90 % 0.00 in 0 W/m2
01:45 42.7 °F 40.0 °F 29.67 in WNW 15.0 mph 15.0 mph 90 % 0.00 in 0 W/m2
01:50 42.8 °F 40.1 °F 29.67 in West 17.0 mph 23.0 mph 90 % 0.00 in 0 W/m2
02:00 42.9 °F 40.2 °F 29.67 in WSW 17.0 mph 17.0 mph 90 % 0.00 in 0 W/m2
02:05 43.0 °F 40.3 °F 29.67 in WNW 15.0 mph 23.0 mph 90 % 0.00 in 0 W/m2
02:10 43.1 °F 40.4 °F 29.67 in NW 15.0 mph 15.0 mph 90 % 0.00 in 0 W/m2
02:15 43.2 °F 40.2 °F 29.68 in WNW 14.0 mph 19.0 mph 89 % 0.00 in 0 W/m2
02:20 43.3 °F 40.3 °F 29.67 in WNW 13.0 mph 13.0 mph 89 % 0.00 in 0 W/m2
02:25 43.2 °F 40.5 °F 29.67 in West 13.0 mph 23.0 mph 90 % 0.00 in 0 W/m2
02:30 43.2 °F 40.5 °F 29.67 in NW 12.0 mph 12.0 mph 90 % 0.00 in 0 W/m2
02:35 43.2 °F 40.5 °F 29.67 in West 12.0 mph 25.0 mph 90 % 0.00 in 0 W/m2
02:40 43.2 °F 40.5 °F 29.66 in WNW 13.0 mph 13.0 mph 90 % 0.00 in 0 W/m2
02:45 43.2 °F 40.5 °F 29.66 in WNW 12.0 mph 20.0 mph 90 % 0.00 in 0 W/m2
02:55 43.2 °F 40.5 °F 29.67 in WSW 11.0 mph 14.0 mph 90 % 0.00 in 0 W/m2
03:00 43.2 °F 40.5 °F 29.67 in West 11.0 mph 23.0 mph 90 % 0.00 in 0 W/m2
03:05 43.3 °F 40.6 °F 29.67 in NW 14.0 mph 23.0 mph 90 % 0.00 in 0 W/m2
03:10 43.4 °F 40.7 °F 29.67 in WNW 13.0 mph 13.0 mph 90 % 0.00 in 0 W/m2
03:15 43.6 °F 40.9 °F 29.67 in WNW 13.0 mph 15.0 mph 90 % 0.00 in 0 W/m2
03:20 43.7 °F 41.0 °F 29.67 in West 13.0 mph 23.0 mph 90 % 0.00 in 0 W/m2
03:25 43.8 °F 40.8 °F 29.67 in WNW 13.0 mph 23.0 mph 89 % 0.00 in 0 W/m2
03:35 43.9 °F 40.9 °F 29.67 in West 13.0 mph 23.0 mph 89 % 0.00 in 0 W/m2
03:40 44.0 °F 41.0 °F 29.67 in West 13.0 mph 23.0 mph 89 % 0.00 in 0 W/m2
03:45 43.9 °F 40.9 °F 29.67 in West 13.0 mph 23.0 mph 89 % 0.00 in 0 W/m2
03:50 43.9 °F 40.9 °F 29.67 in West 14.0 mph 14.0 mph 89 % 0.00 in 0 W/m2
03:55 43.9 °F 40.9 °F 29.67 in West 15.0 mph 19.0 mph 89 % 0.00 in 0 W/m2
04:00 44.0 °F 40.7 °F 29.67 in WNW 15.0 mph 15.0 mph 88 % 0.00 in 0 W/m2
04:10 44.2 °F 40.9 °F 29.67 in West 13.0 mph 13.0 mph 88 % 0.00 in 0 W/m2
04:15 44.3 °F 41.0 °F 29.67 in WNW 12.0 mph 23.0 mph 88 % 0.00 in 0 W/m2
04:20 44.3 °F 41.0 °F 29.67 in West 11.0 mph 11.0 mph 88 % 0.00 in 0 W/m2
04:25 44.3 °F 41.0 °F 29.66 in WNW 11.0 mph 23.0 mph 88 % 0.00 in 0 W/m2
04:30 44.3 °F 41.0 °F 29.66 in WNW 11.0 mph 23.0 mph 88 % 0.00 in 0 W/m2
04:40 44.2 °F 40.9 °F 29.67 in NW 11.0 mph 11.0 mph 88 % 0.00 in 0 W/m2
04:45 44.3 °F 41.0 °F 29.67 in WNW 11.0 mph 23.0 mph 88 % 0.00 in 0 W/m2
04:50 44.3 °F 41.0 °F 29.67 in WNW 11.0 mph 11.0 mph 88 % 0.00 in 0 W/m2
04:55 44.4 °F 41.1 °F 29.67 in WNW 12.0 mph 14.0 mph 88 % 0.00 in 0 W/m2
05:00 44.4 °F 41.1 °F 29.67 in WNW 13.0 mph 23.0 mph 88 % 0.00 in 0 W/m2
05:05 44.4 °F 41.1 °F 29.67 in WNW 13.0 mph 23.0 mph 88 % 0.00 in 0 W/m2
05:10 44.5 °F 41.2 °F 29.67 in WNW 13.0 mph 13.0 mph 88 % 0.00 in 0 W/m2
05:20 44.6 °F 41.3 °F 29.67 in WNW 11.0 mph 11.0 mph 88 % 0.00 in 0 W/m2
05:25 44.6 °F 41.3 °F 29.67 in WSW 11.0 mph 13.0 mph 88 % 0.00 in 0 W/m2
05:30 44.6 °F 41.0 °F 29.67 in WNW 12.0 mph 23.0 mph 87 % 0.00 in 0 W/m2
05:35 44.6 °F 41.0 °F 29.68 in WNW 14.0 mph 23.0 mph 87 % 0.00 in 0 W/m2
05:40 44.7 °F 41.1 °F 29.68 in WNW 15.0 mph 23.0 mph 87 % 0.00 in 0 W/m2
05:45 44.7 °F 41.1 °F 29.68 in WNW 14.0 mph 23.0 mph 87 % 0.00 in 0 W/m2
05:55 44.8 °F 41.5 °F 29.69 in WNW 12.0 mph 23.0 mph 88 % 0.00 in 0 W/m2
06:00 44.9 °F 41.3 °F 29.69 in WNW 13.0 mph 23.0 mph 87 % 0.00 in 0 W/m2
06:05 45.0 °F 41.4 °F 29.69 in NW 14.0 mph 23.0 mph 87 % 0.00 in 0 W/m2
06:10 45.0 °F 41.4 °F 29.69 in West 13.0 mph 13.0 mph 87 % 0.00 in 0 W/m2
06:15 45.0 °F 41.4 °F 29.69 in NW 12.0 mph 23.0 mph 87 % 0.00 in 0 W/m2
06:20 45.0 °F 41.7 °F 29.69 in NW 12.0 mph 23.0 mph 88 % 0.00 in 0 W/m2
06:35 45.0 °F 41.7 °F 29.69 in West 12.0 mph 23.0 mph 88 % 0.00 in 0 W/m2
06:40 44.9 °F 41.6 °F 29.70 in WNW 11.0 mph 11.0 mph 88 % 0.00 in 0 W/m2
06:45 44.9 °F 41.6 °F 29.70 in West 13.0 mph 16.0 mph 88 % 0.00 in 0 W/m2
06:50 44.9 °F 41.6 °F 29.70 in NW 15.0 mph 23.0 mph 88 % 0.00 in 0 W/m2
07:00 44.9 °F 41.6 °F 29.70 in West 15.0 mph 23.0 mph 88 % 0.00 in 0 W/m2
07:05 44.8 °F 41.5 °F 29.70 in West 15.0 mph 23.0 mph 88 % 0.00 in 0 W/m2
07:10 44.8 °F 41.5 °F 29.71 in West 13.0 mph 23.0 mph 88 % 0.00 in 0 W/m2
07:15 44.8 °F 41.5 °F 29.71 in WNW 13.0 mph 23.0 mph 88 % 0.00 in 0 W/m2
07:20 44.8 °F 41.5 °F 29.70 in West 13.0 mph 23.0 mph 88 % 0.00 in 0 W/m2
07:25 44.9 °F 41.6 °F 29.71 in WNW 12.0 mph 23.0 mph 88 % 0.00 in 0 W/m2
07:35 44.9 °F 41.6 °F 29.71 in WNW 12.0 mph 23.0 mph 88 % 0.00 in 0 W/m2
07:40 44.9 °F 41.6 °F 29.72 in WNW 11.0 mph 23.0 mph 88 % 0.00 in 0 W/m2
07:45 44.9 °F 41.9 °F 29.72 in West 12.0 mph 23.0 mph 89 % 0.00 in 0 W/m2
07:50 44.9 °F 41.6 °F 29.72 in WSW 13.0 mph 13.0 mph 88 % 0.00 in 0 W/m2
07:55 45.0 °F 41.7 °F 29.72 in West 13.0 mph 15.0 mph 88 % 0.00 in 0 W/m2
08:00 45.0 °F 41.7 °F 29.72 in West 11.0 mph 23.0 mph 88 % 0.00 in 0 W/m2
08:10 45.1 °F 41.8 °F 29.72 in West 10.0 mph 10.0 mph 88 % 0.00 in 0 W/m2
08:15 45.1 °F 41.8 °F 29.72 in WNW 10.0 mph 12.0 mph 88 % 0.00 in 0 W/m2
08:20 45.1 °F 41.8 °F 29.72 in WNW 10.0 mph 23.0 mph 88 % 0.00 in 0 W/m2
08:25 45.1 °F 41.8 °F 29.73 in WNW 9.0 mph 23.0 mph 88 % 0.00 in 7 W/m2
08:30 45.0 °F 41.7 °F 29.73 in WNW 9.0 mph 23.0 mph 88 % 0.00 in 9 W/m2
08:35 45.1 °F 41.8 °F 29.73 in WNW 9.0 mph 23.0 mph 88 % 0.00 in 12 W/m2
08:45 45.1 °F 41.8 °F 29.73 in WNW 10.0 mph 11.0 mph 88 % 0.00 in 12 W/m2
08:50 45.1 °F 41.8 °F 29.73 in WNW 11.0 mph 11.0 mph 88 % 0.00 in 19 W/m2
08:55 45.2 °F 41.9 °F 29.74 in NW 11.0 mph 23.0 mph 88 % 0.00 in 23 W/m2
09:00 45.2 °F 41.9 °F 29.74 in WNW 11.0 mph 23.0 mph 88 % 0.00 in 26 W/m2
09:05 45.3 °F 42.0 °F 29.74 in WNW 9.0 mph 23.0 mph 88 % 0.00 in 37 W/m2
09:10 45.4 °F 42.1 °F 29.74 in WNW 9.0 mph 9.0 mph 88 % 0.00 in 37 W/m2
09:20 45.5 °F 42.2 °F 29.74 in WNW 10.0 mph 10.0 mph 88 % 0.00 in 69 W/m2
09:25 45.6 °F 42.3 °F 29.74 in WNW 9.0 mph 15.0 mph 88 % 0.00 in 72 W/m2
09:30 45.7 °F 42.3 °F 29.75 in West 10.0 mph 23.0 mph 88 % 0.00 in 63 W/m2
09:35 45.9 °F 42.5 °F 29.75 in West 12.0 mph 23.0 mph 88 % 0.00 in 62 W/m2
09:40 45.9 °F 42.2 °F 29.75 in WNW 11.0 mph 23.0 mph 87 % 0.00 in 65 W/m2
09:45 46.0 °F 42.6 °F 29.75 in WNW 11.0 mph 23.0 mph 88 % 0.00 in 83 W/m2
09:50 46.1 °F 42.4 °F 29.75 in WNW 14.0 mph 14.0 mph 87 % 0.00 in 151 W/m2
10:00 46.2 °F 42.5 °F 29.75 in WNW 13.0 mph 13.0 mph 87 % 0.00 in 79 W/m2
10:05 46.2 °F 42.5 °F 29.75 in West 14.0 mph 18.0 mph 87 % 0.00 in 118 W/m2
10:10 46.4 °F 42.7 °F 29.75 in West 14.0 mph 23.0 mph 87 % 0.00 in 121 W/m2
10:15 46.6 °F 42.6 °F 29.75 in West 14.0 mph 23.0 mph 86 % 0.00 in 105 W/m2
10:20 46.7 °F 42.7 °F 29.75 in West 13.0 mph 13.0 mph 86 % 0.00 in 109 W/m2
10:25 46.7 °F 42.7 °F 29.75 in WNW 14.0 mph 16.0 mph 86 % 0.00 in 132 W/m2
10:35 46.7 °F 42.7 °F 29.75 in WNW 15.0 mph 23.0 mph 86 % 0.00 in 156 W/m2
10:40 46.8 °F 42.8 °F 29.75 in WSW 14.0 mph 14.0 mph 86 % 0.00 in 185 W/m2
10:45 46.8 °F 42.8 °F 29.75 in West 13.0 mph 23.0 mph 86 % 0.00 in 158 W/m2
10:50 46.9 °F 42.9 °F 29.75 in West 13.0 mph 23.0 mph 86 % 0.00 in 149 W/m2
10:55 47.0 °F 43.0 °F 29.74 in WNW 12.0 mph 23.0 mph 86 % 0.00 in 95 W/m2
11:00 46.9 °F 42.9 °F 29.74 in West 13.0 mph 13.0 mph 86 % 0.00 in 104 W/m2
11:10 46.6 °F 42.6 °F 29.75 in West 11.0 mph 11.0 mph 86 % 0.00 in 105 W/m2
11:15 46.6 °F 42.6 °F 29.75 in NW 13.0 mph 13.0 mph 86 % 0.00 in 114 W/m2
11:20 46.6 °F 42.6 °F 29.75 in WNW 12.0 mph 12.0 mph 86 % 0.00 in 104 W/m2
11:25 46.6 °F 42.6 °F 29.76 in NW 12.0 mph 23.0 mph 86 % 0.00 in 76 W/m2
11:30 46.5 °F 42.8 °F 29.75 in WSW 13.0 mph 13.0 mph 87 % 0.00 in 104 W/m2
11:35 46.4 °F 42.7 °F 29.75 in West 13.0 mph 23.0 mph 87 % 0.00 in 188 W/m2
11:40 46.4 °F 42.7 °F 29.75 in WSW 13.0 mph 23.0 mph 87 % 0.00 in 111 W/m2
11:50 46.4 °F 42.4 °F 29.75 in NW 15.0 mph 15.0 mph 86 % 0.00 in 116 W/m2
11:55 46.4 °F 42.4 °F 29.75 in WNW 14.0 mph 23.0 mph 86 % 0.00 in 125 W/m2
12:00 46.5 °F 42.2 °F 29.75 in WNW 15.0 mph 23.0 mph 85 % 0.00 in 128 W/m2
12:05 46.6 °F 42.3 °F 29.75 in WNW 14.0 mph 23.0 mph 85 % 0.00 in 100 W/m2
12:10 46.6 °F 42.3 °F 29.76 in WNW 12.0 mph 12.0 mph 85 % 0.00 in 69 W/m2
12:15 46.6 °F 42.0 °F 29.75 in NW 11.0 mph 23.0 mph 84 % 0.00 in 54 W/m2
12:25 46.7 °F 42.1 °F 29.75 in WNW 11.0 mph 23.0 mph 84 % 0.00 in 84 W/m2
12:35 46.8 °F 41.9 °F 29.75 in WNW 12.0 mph 14.0 mph 83 % 0.00 in 104 W/m2
12:40 47.0 °F 42.1 °F 29.75 in West 13.0 mph 13.0 mph 83 % 0.00 in 97 W/m2
12:45 47.1 °F 42.2 °F 29.75 in West 12.0 mph 23.0 mph 83 % 0.00 in 188 W/m2
12:50 47.3 °F 42.1 °F 29.75 in NW 11.0 mph 11.0 mph 82 % 0.00 in 234 W/m2
12:55 47.7 °F 42.5 °F 29.75 in NW 11.0 mph 13.0 mph 82 % 0.00 in 207 W/m2
13:00 47.9 °F 42.3 °F 29.75 in NW 11.0 mph 23.0 mph 81 % 0.00 in 83 W/m2
13:10 47.7 °F 42.2 °F 29.76 in WNW 10.0 mph 10.0 mph 81 % 0.00 in 100 W/m2
13:15 47.8 °F 42.3 °F 29.76 in West 10.0 mph 23.0 mph 81 % 0.00 in 202 W/m2
13:20 48.0 °F 42.4 °F 29.75 in WNW 11.0 mph 23.0 mph 81 % 0.00 in 200 W/m2
13:25 48.2 °F 42.3 °F 29.75 in WSW 12.0 mph 23.0 mph 80 % 0.00 in 77 W/m2
13:35 47.9 °F 42.3 °F 29.76 in WNW 11.0 mph 23.0 mph 81 % 0.00 in 188 W/m2
13:45 48.0 °F 42.4 °F 29.76 in WNW 13.0 mph 23.0 mph 81 % 0.00 in 91 W/m2
13:50 47.9 °F 42.7 °F 29.75 in WNW 14.0 mph 14.0 mph 82 % 0.00 in 107 W/m2
13:55 47.9 °F 42.7 °F 29.75 in West 14.0 mph 23.0 mph 82 % 0.00 in 105 W/m2
14:00 47.8 °F 42.6 °F 29.76 in WNW 14.0 mph 14.0 mph 82 % 0.00 in 111 W/m2
14:05 47.9 °F 43.0 °F 29.76 in West 14.0 mph 23.0 mph 83 % 0.00 in 200 W/m2
14:10 48.0 °F 42.8 °F 29.76 in West 12.0 mph 23.0 mph 82 % 0.00 in 74 W/m2
14:15 47.9 °F 42.7 °F 29.75 in WNW 10.0 mph 23.0 mph 82 % 0.00 in 135 W/m2
14:25 47.8 °F 43.2 °F 29.76 in West 8.0 mph 13.0 mph 84 % 0.00 in 47 W/m2
14:30 47.7 °F 43.1 °F 29.77 in West 9.0 mph 9.0 mph 84 % 0.00 in 44 W/m2
14:35 47.6 °F 43.3 °F 29.75 in West 10.0 mph 13.0 mph 85 % 0.00 in 42 W/m2
14:40 47.5 °F 43.2 °F 29.76 in SW 10.0 mph 23.0 mph 85 % 0.00 in 67 W/m2
14:45 47.4 °F 43.4 °F 29.76 in WNW 9.0 mph 23.0 mph 86 % 0.00 in 40 W/m2
14:50 47.3 °F 43.3 °F 29.76 in West 8.0 mph 8.0 mph 86 % 0.00 in 35 W/m2
15:00 47.2 °F 43.2 °F 29.76 in West 5.0 mph 5.0 mph 86 % 0.00 in 32 W/m2
15:05 47.1 °F 43.4 °F 29.77 in WSW 6.0 mph 9.0 mph 87 % 0.00 in 25 W/m2
15:10 47.1 °F 43.4 °F 29.77 in West 9.0 mph 23.0 mph 87 % 0.00 in 23 W/m2
15:15 47.1 °F 43.4 °F 29.77 in WNW 9.0 mph 23.0 mph 87 % 0.00 in 23 W/m2
15:20 47.1 °F 43.7 °F 29.77 in West 9.0 mph 9.0 mph 88 % 0.00 in 25 W/m2
15:25 47.0 °F 43.6 °F 29.76 in WSW 8.0 mph 23.0 mph 88 % 0.00 in 18 W/m2
15:35 47.0 °F 43.6 °F 29.76 in WSW 7.0 mph 23.0 mph 88 % 0.00 in 11 W/m2
15:40 46.9 °F 43.5 °F 29.76 in West 7.0 mph 23.0 mph 88 % 0.00 in 9 W/m2
15:45 46.8 °F 43.4 °F 29.76 in SW 6.0 mph 23.0 mph 88 % 0.00 in 9 W/m2
15:50 46.8 °F 43.4 °F 29.76 in SW 6.0 mph 6.0 mph 88 % 0.00 in 7 W/m2
15:55 46.8 °F 43.7 °F 29.77 in WSW 5.0 mph 23.0 mph 89 % 0.00 in 0 W/m2
16:00 46.8 °F 43.7 °F 29.77 in SW 4.0 mph 4.0 mph 89 % 0.00 in 0 W/m2
16:10 46.9 °F 43.8 °F 29.77 in WSW 4.0 mph 23.0 mph 89 % 0.00 in 0 W/m2
16:15 47.0 °F 44.2 °F 29.77 in West 7.0 mph 23.0 mph 90 % 0.00 in 0 W/m2
16:20 47.0 °F 44.2 °F 29.77 in West 8.0 mph 8.0 mph 90 % 0.00 in 0 W/m2
16:25 47.1 °F 44.3 °F 29.77 in WSW 7.0 mph 10.0 mph 90 % 0.00 in 0 W/m2
16:35 47.2 °F 44.7 °F 29.77 in WSW 6.0 mph 23.0 mph 91 % 0.00 in 0 W/m2
16:40 47.2 °F 44.7 °F 29.76 in West 6.0 mph 6.0 mph 91 % 0.00 in 0 W/m2
16:45 47.2 °F 44.7 °F 29.76 in WSW 5.0 mph 23.0 mph 91 % 0.00 in 0 W/m2
16:55 47.3 °F 44.8 °F 29.76 in SW 5.0 mph 23.0 mph 91 % 0.00 in 0 W/m2
17:00 47.4 °F 44.9 °F 29.76 in WSW 6.0 mph 23.0 mph 91 % 0.00 in 0 W/m2
17:01 47.3 °F 44.8 °F 29.76 in SSW 6.0 mph -999.0 mph 91 % 0.00 in 0 W/m2
17:05 47.5 °F 45.0 °F 29.76 in WSW 6.0 mph 23.0 mph 91 % 0.00 in 0 W/m2
17:06 47.3 °F 44.8 °F 29.76 in SSW 6.0 mph -999.0 mph 91 % 0.00 in 0 W/m2
17:10 47.6 °F 45.1 °F 29.77 in WSW 5.0 mph 23.0 mph 91 % 0.00 in 0 W/m2
17:11 47.6 °F 45.1 °F 29.77 in WSW 6.0 mph -999.0 mph 91 % 0.00 in 0 W/m2
17:15 47.7 °F 45.2 °F 29.77 in WSW 6.0 mph 23.0 mph 91 % 0.00 in 0 W/m2
17:16 47.6 °F 45.1 °F 29.77 in WSW 6.0 mph -999.0 mph 91 % 0.00 in 0 W/m2
17:20 47.8 °F 45.3 °F 29.77 in SW 6.0 mph 6.0 mph 91 % 0.00 in 0 W/m2
17:21 47.6 °F 45.1 °F 29.77 in WSW 6.0 mph -999.0 mph 91 % 0.00 in 0 W/m2
17:26 47.8 °F 45.3 °F 29.78 in West 6.0 mph -999.0 mph 91 % 0.00 in 0 W/m2
17:30 47.9 °F 45.4 °F 29.78 in WSW 6.0 mph 23.0 mph 91 % 0.00 in 0 W/m2
17:31 47.8 °F 45.3 °F 29.78 in West 6.0 mph -999.0 mph 91 % 0.00 in 0 W/m2
17:35 47.9 °F 45.1 °F 29.77 in West 7.0 mph 23.0 mph 90 % 0.00 in 0 W/m2
17:36 47.8 °F 45.3 °F 29.78 in West 6.0 mph -999.0 mph 91 % 0.00 in 0 W/m2
17:41 48.0 °F 44.6 °F 29.77 in West 8.0 mph -999.0 mph 88 % 0.00 in 0 W/m2
17:46 48.0 °F 44.6 °F 29.77 in West 8.0 mph -999.0 mph 88 % 0.00 in 0 W/m2
17:51 48.0 °F 44.6 °F 29.77 in West 8.0 mph -999.0 mph 88 % 0.00 in 0 W/m2
17:56 48.3 °F 44.6 °F 29.77 in West 11.0 mph -999.0 mph 87 % 0.00 in 0 W/m2
18:01 48.3 °F 44.6 °F 29.77 in West 11.0 mph -999.0 mph 87 % 0.00 in 0 W/m2
18:06 48.3 °F 44.6 °F 29.77 in West 11.0 mph -999.0 mph 87 % 0.00 in 0 W/m2
18:11 48.5 °F 44.8 °F 29.76 in West 9.0 mph -999.0 mph 87 % 0.00 in 0 W/m2
18:16 48.5 °F 44.8 °F 29.76 in West 9.0 mph -999.0 mph 87 % 0.00 in 0 W/m2
18:21 48.5 °F 44.8 °F 29.76 in West 9.0 mph -999.0 mph 87 % 0.00 in 0 W/m2
18:26 48.6 °F 44.6 °F 29.77 in West 8.0 mph -999.0 mph 86 % 0.00 in 0 W/m2
18:31 48.6 °F 44.6 °F 29.77 in West 8.0 mph -999.0 mph 86 % 0.00 in 0 W/m2
18:36 48.6 °F 44.6 °F 29.77 in West 8.0 mph -999.0 mph 86 % 0.00 in 0 W/m2
18:41 48.7 °F 44.7 °F 29.77 in WNW 7.0 mph -999.0 mph 86 % 0.00 in 0 W/m2
18:46 48.7 °F 44.7 °F 29.77 in WNW 7.0 mph -999.0 mph 86 % 0.00 in 0 W/m2
18:51 48.7 °F 44.7 °F 29.77 in WNW 7.0 mph -999.0 mph 86 % 0.00 in 0 W/m2
18:56 48.6 °F 44.3 °F 29.77 in WNW 9.0 mph -999.0 mph 85 % 0.00 in 0 W/m2
19:01 48.6 °F 44.3 °F 29.77 in WNW 9.0 mph -999.0 mph 85 % 0.00 in 0 W/m2
19:06 48.6 °F 44.3 °F 29.77 in WNW 9.0 mph -999.0 mph 85 % 0.00 in 0 W/m2
19:11 48.2 °F 43.9 °F 29.77 in WNW 7.0 mph -999.0 mph 85 % 0.00 in 0 W/m2
19:16 48.2 °F 43.9 °F 29.77 in WNW 7.0 mph -999.0 mph 85 % 0.00 in 0 W/m2
19:21 48.2 °F 43.9 °F 29.77 in WNW 7.0 mph -999.0 mph 85 % 0.00 in 0 W/m2
19:26 48.0 °F 43.7 °F 29.77 in WNW 6.0 mph -999.0 mph 85 % 0.00 in 0 W/m2
19:31 48.0 °F 43.7 °F 29.77 in WNW 6.0 mph -999.0 mph 85 % 0.00 in 0 W/m2
19:36 48.0 °F 43.7 °F 29.77 in WNW 6.0 mph -999.0 mph 85 % 0.00 in 0 W/m2
19:41 48.0 °F 43.4 °F 29.76 in West 8.0 mph -999.0 mph 84 % 0.00 in 0 W/m2
19:46 48.0 °F 43.4 °F 29.76 in West 8.0 mph -999.0 mph 84 % 0.00 in 0 W/m2
19:51 48.0 °F 43.4 °F 29.76 in West 8.0 mph -999.0 mph 84 % 0.00 in 0 W/m2
19:56 48.2 °F 43.6 °F 29.75 in West 9.0 mph -999.0 mph 84 % 0.00 in 0 W/m2
20:01 48.2 °F 43.6 °F 29.75 in West 9.0 mph -999.0 mph 84 % 0.00 in 0 W/m2
20:06 48.2 °F 43.6 °F 29.75 in West 9.0 mph -999.0 mph 84 % 0.00 in 0 W/m2
20:11 48.0 °F 43.1 °F 29.76 in WNW 7.0 mph -999.0 mph 83 % 0.00 in 0 W/m2
20:16 48.0 °F 43.1 °F 29.76 in WNW 7.0 mph -999.0 mph 83 % 0.00 in 0 W/m2
20:21 48.0 °F 43.1 °F 29.76 in WNW 7.0 mph -999.0 mph 83 % 0.00 in 0 W/m2
20:26 47.9 °F 43.3 °F 29.74 in West 8.0 mph -999.0 mph 84 % 0.00 in 0 W/m2
20:31 47.9 °F 43.3 °F 29.74 in West 8.0 mph -999.0 mph 84 % 0.00 in 0 W/m2
20:36 47.9 °F 43.3 °F 29.74 in West 8.0 mph -999.0 mph 84 % 0.00 in 0 W/m2
20:41 47.8 °F 43.2 °F 29.75 in West 9.0 mph -999.0 mph 84 % 0.00 in 0 W/m2
20:46 47.8 °F 43.2 °F 29.75 in West 9.0 mph -999.0 mph 84 % 0.00 in 0 W/m2
20:51 47.8 °F 43.2 °F 29.75 in West 9.0 mph -999.0 mph 84 % 0.00 in 0 W/m2
20:56 47.8 °F 43.2 °F 29.76 in WNW 9.0 mph -999.0 mph 84 % 0.00 in 0 W/m2
21:01 47.8 °F 43.2 °F 29.76 in WNW 9.0 mph -999.0 mph 84 % 0.00 in 0 W/m2
21:06 47.8 °F 43.2 °F 29.76 in WNW 9.0 mph -999.0 mph 84 % 0.00 in 0 W/m2
21:11 47.9 °F 43.3 °F 29.75 in WNW 12.0 mph -999.0 mph 84 % 0.00 in 0 W/m2
21:16 47.9 °F 43.3 °F 29.75 in WNW 12.0 mph -999.0 mph 84 % 0.00 in 0 W/m2
21:21 47.9 °F 43.3 °F 29.75 in WNW 12.0 mph -999.0 mph 84 % 0.00 in 0 W/m2
21:26 47.9 °F 43.3 °F 29.72 in West 14.0 mph -999.0 mph 84 % 0.00 in 0 W/m2
21:31 47.9 °F 43.3 °F 29.72 in West 14.0 mph -999.0 mph 84 % 0.00 in 0 W/m2
21:36 47.9 °F 43.3 °F 29.72 in West 14.0 mph -999.0 mph 84 % 0.00 in 0 W/m2
21:41 47.8 °F 43.2 °F 29.73 in WNW 11.0 mph -999.0 mph 84 % 0.00 in 0 W/m2
21:46 47.8 °F 43.2 °F 29.73 in WNW 11.0 mph -999.0 mph 84 % 0.00 in 0 W/m2
21:51 47.8 °F 43.2 °F 29.73 in WNW 11.0 mph -999.0 mph 84 % 0.00 in 0 W/m2
21:56 47.7 °F 43.4 °F 29.73 in West 11.0 mph -999.0 mph 85 % 0.00 in 0 W/m2
22:01 47.7 °F 43.4 °F 29.73 in West 11.0 mph -999.0 mph 85 % 0.00 in 0 W/m2
22:06 47.7 °F 43.4 °F 29.73 in West 11.0 mph -999.0 mph 85 % 0.00 in 0 W/m2
22:11 47.7 °F 43.1 °F 29.72 in West 7.0 mph -999.0 mph 84 % 0.00 in 0 W/m2
22:16 47.7 °F 43.1 °F 29.72 in West 7.0 mph -999.0 mph 84 % 0.00 in 0 W/m2
22:21 47.7 °F 43.1 °F 29.72 in West 7.0 mph -999.0 mph 84 % 0.00 in 0 W/m2
22:26 47.7 °F 43.4 °F 29.70 in SW 5.0 mph -999.0 mph 85 % 0.00 in 0 W/m2
22:31 47.7 °F 43.4 °F 29.70 in SW 5.0 mph -999.0 mph 85 % 0.00 in 0 W/m2
22:36 47.7 °F 43.4 °F 29.70 in SW 5.0 mph -999.0 mph 85 % 0.00 in 0 W/m2
22:41 47.6 °F 43.6 °F 29.71 in West 15.0 mph -999.0 mph 86 % 0.00 in 0 W/m2
22:46 47.6 °F 43.6 °F 29.71 in West 15.0 mph -999.0 mph 86 % 0.00 in 0 W/m2
22:51 47.6 °F 43.6 °F 29.71 in West 15.0 mph -999.0 mph 86 % 0.00 in 0 W/m2
22:56 47.6 °F 43.6 °F 29.71 in West 18.0 mph -999.0 mph 86 % 0.00 in 0 W/m2
23:01 47.6 °F 43.6 °F 29.71 in West 18.0 mph -999.0 mph 86 % 0.00 in 0 W/m2
23:06 47.6 °F 43.6 °F 29.71 in West 18.0 mph -999.0 mph 86 % 0.00 in 0 W/m2
23:11 47.7 °F 43.7 °F 29.72 in West 17.0 mph -999.0 mph 86 % 0.00 in 0 W/m2
23:16 47.7 °F 43.7 °F 29.72 in West 17.0 mph -999.0 mph 86 % 0.00 in 0 W/m2
23:21 47.7 °F 43.7 °F 29.72 in West 17.0 mph -999.0 mph 86 % 0.00 in 0 W/m2
23:26 47.7 °F 43.7 °F 29.73 in West 12.0 mph -999.0 mph 86 % 0.00 in 0 W/m2
23:31 47.7 °F 43.7 °F 29.73 in West 12.0 mph -999.0 mph 86 % 0.00 in 0 W/m2
23:36 47.7 °F 43.7 °F 29.73 in West 12.0 mph -999.0 mph 86 % 0.00 in 0 W/m2
23:41 47.6 °F 43.9 °F 29.69 in WSW 12.0 mph -999.0 mph 87 % 0.00 in 0 W/m2
23:46 47.6 °F 43.9 °F 29.69 in WSW 12.0 mph -999.0 mph 87 % 0.00 in 0 W/m2
23:51 47.6 °F 43.9 °F 29.69 in WSW 12.0 mph -999.0 mph 87 % 0.00 in 0 W/m2
23:56 47.5 °F 43.8 °F 29.69 in West 13.0 mph -999.0 mph 87 % 0.00 in 0 W/m2
Delerius-Weather
Compliments of Weather Underground - 2.25 mb

Data updates at regular intervals.